Time,TemperatureF,DewpointF,PressureIn,WindDirection,WindDirectionDegrees,WindSpeedMPH,WindSpeedGustMPH,Humidity,HourlyPrecipIn,Conditions,Clouds,dailyrainin,SoftwareType,DateUTC
2014-10-21 00:01:00,61.1,56.0,29.83,South,179,0.0,-999.0,84,-99.99,,,0.00,Homebuilt-Script,2014-10-21 07:01:00,
2014-10-21 00:11:00,60.9,56.0,29.83,NW,313,1.0,-999.0,84,-99.99,,,0.00,Homebuilt-Script,2014-10-21 07:11:00,
2014-10-21 00:21:00,60.7,56.0,29.83,NW,313,0.0,-999.0,85,-99.99,,,0.00,Homebuilt-Script,2014-10-21 07:21:00,
2014-10-21 00:31:00,60.3,55.0,29.82,NE,44,2.0,-999.0,86,-99.99,,,0.00,Homebuilt-Script,2014-10-21 07:31:00,
2014-10-21 00:41:00,60.2,57.0,29.82,NE,44,1.0,-999.0,91,-99.99,,,0.00,Homebuilt-Script,2014-10-21 07:41:00,
2014-10-21 00:51:00,60.3,57.0,29.82,NE,55,1.0,-999.0,90,-99.99,,,0.00,Homebuilt-Script,2014-10-21 07:51:00,
2014-10-21 01:01:00,60.5,57.0,29.82,NE,41,1.0,-999.0,90,-99.99,,,0.00,Homebuilt-Script,2014-10-21 08:01:00,
2014-10-21 01:11:00,60.5,57.0,29.81,East,89,1.0,-999.0,89,-99.99,,,0.00,Homebuilt-Script,2014-10-21 08:11:00,
2014-10-21 01:21:00,60.5,56.0,29.82,SE,134,0.0,-999.0,88,-99.99,,,0.00,Homebuilt-Script,2014-10-21 08:21:00,
2014-10-21 01:31:00,60.3,57.0,29.81,East,86,0.0,-999.0,89,-99.99,,,0.00,Homebuilt-Script,2014-10-21 08:31:00,
2014-10-21 01:41:00,60.2,57.0,29.82,North,350,1.0,-999.0,90,-99.99,,,0.00,Homebuilt-Script,2014-10-21 08:41:00,
2014-10-21 01:51:00,60.0,57.0,29.81,East,83,0.0,-999.0,89,-99.99,,,0.00,Homebuilt-Script,2014-10-21 08:51:00,
2014-10-21 02:01:00,59.8,56.0,29.81,South,179,0.0,-999.0,88,-99.99,,,0.00,Homebuilt-Script,2014-10-21 09:01:00,
2014-10-21 02:11:00,59.6,57.0,29.82,NE,44,1.0,-999.0,89,-99.99,,,0.00,Homebuilt-Script,2014-10-21 09:11:00,
2014-10-21 02:21:00,59.6,56.0,29.83,NW,313,1.0,-999.0,88,-99.99,,,0.00,Homebuilt-Script,2014-10-21 09:21:00,
2014-10-21 02:31:00,59.4,55.0,29.82,NW,313,0.0,-999.0,88,-99.99,,,0.00,Homebuilt-Script,2014-10-21 09:31:00,
2014-10-21 02:41:00,59.3,55.0,29.82,NW,313,0.0,-999.0,88,-99.99,,,0.00,Homebuilt-Script,2014-10-21 09:41:00,
2014-10-21 02:51:00,59.1,55.0,29.82,NE,44,1.0,-999.0,88,-99.99,,,0.00,Homebuilt-Script,2014-10-21 09:51:00,
2014-10-21 03:01:00,59.1,56.0,29.82,NE,44,0.0,-999.0,90,-99.99,,,0.00,Homebuilt-Script,2014-10-21 10:01:00,
2014-10-21 03:11:00,59.1,56.0,29.82,NE,44,0.0,-999.0,89,-99.99,,,0.00,Homebuilt-Script,2014-10-21 10:11:00,
2014-10-21 03:21:00,58.9,56.0,29.82,South,179,1.0,-999.0,89,-99.99,,,0.00,Homebuilt-Script,2014-10-21 10:21:00,
2014-10-21 03:31:00,58.5,54.0,29.81,ENE,78,0.0,-999.0,88,-99.99,,,0.00,Homebuilt-Script,2014-10-21 10:31:00,
2014-10-21 03:41:00,58.2,55.0,29.81,ENE,66,1.0,-999.0,91,-99.99,,,0.00,Homebuilt-Script,2014-10-21 10:41:00,
2014-10-21 03:51:00,58.2,55.0,29.81,East,89,0.0,-999.0,91,-99.99,,,0.00,Homebuilt-Script,2014-10-21 10:51:00,
2014-10-21 04:01:00,58.0,55.0,29.82,South,179,0.0,-999.0,90,-99.99,,,0.00,Homebuilt-Script,2014-10-21 11:01:00,
2014-10-21 04:11:00,58.0,55.0,29.82,West,268,1.0,-999.0,89,-99.99,,,0.00,Homebuilt-Script,2014-10-21 11:11:00,
2014-10-21 04:21:00,58.0,55.0,29.82,NE,44,0.0,-999.0,91,-99.99,,,0.00,Homebuilt-Script,2014-10-21 11:21:00,
2014-10-21 04:31:00,57.8,55.0,29.82,NE,44,0.0,-999.0,90,-99.99,,,0.00,Homebuilt-Script,2014-10-21 11:31:00,
2014-10-21 04:41:00,57.6,55.0,29.81,NE,44,2.0,-999.0,89,-99.99,,,0.00,Homebuilt-Script,2014-10-21 11:41:00,
2014-10-21 04:51:00,57.5,55.0,29.81,NE,44,0.0,-999.0,90,-99.99,,,0.00,Homebuilt-Script,2014-10-21 11:51:00,
2014-10-21 05:01:00,57.5,55.0,29.81,NE,44,0.0,-999.0,90,-99.99,,,0.00,Homebuilt-Script,2014-10-21 12:01:00,
2014-10-21 05:11:00,57.3,54.0,29.82,WNW,282,0.0,-999.0,90,-99.99,,,0.00,Homebuilt-Script,2014-10-21 12:11:00,
2014-10-21 05:21:00,56.9,54.0,29.81,SE,134,1.0,-999.0,89,-99.99,,,0.00,Homebuilt-Script,2014-10-21 12:21:00,
2014-10-21 05:31:00,56.9,54.0,29.82,East,86,0.0,-999.0,90,-99.99,,,0.00,Homebuilt-Script,2014-10-21 12:31:00,
2014-10-21 05:41:00,56.9,54.0,29.81,South,179,0.0,-999.0,89,-99.99,,,0.00,Homebuilt-Script,2014-10-21 12:41:00,
2014-10-21 05:51:00,56.7,54.0,29.81,South,179,0.0,-999.0,89,-99.99,,,0.00,Homebuilt-Script,2014-10-21 12:51:00,
2014-10-21 06:01:00,56.6,54.0,29.82,SW,226,1.0,-999.0,89,-99.99,,,0.00,Homebuilt-Script,2014-10-21 13:01:00,
2014-10-21 06:11:00,56.6,54.0,29.82,NW,309,0.0,-999.0,89,-99.99,,,0.00,Homebuilt-Script,2014-10-21 13:11:00,
2014-10-21 06:21:00,56.4,53.0,29.83,NW,313,0.0,-999.0,89,-99.99,,,0.00,Homebuilt-Script,2014-10-21 13:21:00,
2014-10-21 06:31:00,56.2,53.0,29.83,NW,308,0.0,-999.0,90,-99.99,,,0.00,Homebuilt-Script,2014-10-21 13:31:00,
2014-10-21 06:41:00,56.0,53.0,29.83,NW,313,0.0,-999.0,89,-99.99,,,0.00,Homebuilt-Script,2014-10-21 13:41:00,
2014-10-21 06:51:00,56.0,53.0,29.83,NW,313,0.0,-999.0,90,-99.99,,,0.00,Homebuilt-Script,2014-10-21 13:51:00,
2014-10-21 07:01:00,55.8,53.0,29.84,North,352,1.0,-999.0,90,-99.99,,,0.00,Homebuilt-Script,2014-10-21 14:01:00,
2014-10-21 07:11:00,55.7,53.0,29.84,East,85,1.0,-999.0,90,-99.99,,,0.00,Homebuilt-Script,2014-10-21 14:11:00,
2014-10-21 07:21:00,55.7,54.0,29.84,NE,44,1.0,-999.0,94,-99.99,,,0.00,Homebuilt-Script,2014-10-21 14:21:00,
2014-10-21 07:31:00,55.8,54.0,29.84,NE,44,0.0,-999.0,93,-99.99,,,0.00,Homebuilt-Script,2014-10-21 14:31:00,
2014-10-21 07:41:00,56.0,54.0,29.84,South,179,0.0,-999.0,92,-99.99,,,0.00,Homebuilt-Script,2014-10-21 14:41:00,
2014-10-21 07:51:00,56.2,54.0,29.84,NE,44,0.0,-999.0,92,-99.99,,,0.00,Homebuilt-Script,2014-10-21 14:51:00,
2014-10-21 08:01:00,56.6,54.0,29.84,South,179,0.0,-999.0,91,-99.99,,,0.00,Homebuilt-Script,2014-10-21 15:01:00,
2014-10-21 08:11:00,56.9,54.0,29.85,South,179,0.0,-999.0,91,-99.99,,,0.00,Homebuilt-Script,2014-10-21 15:11:00,
2014-10-21 08:21:00,57.5,55.0,29.85,SE,134,0.0,-999.0,91,-99.99,,,0.00,Homebuilt-Script,2014-10-21 15:21:00,
2014-10-21 08:31:00,58.0,55.0,29.86,SE,134,0.0,-999.0,91,-99.99,,,0.00,Homebuilt-Script,2014-10-21 15:31:00,
2014-10-21 08:41:00,58.7,56.0,29.86,East,89,1.0,-999.0,91,-99.99,,,0.00,Homebuilt-Script,2014-10-21 15:41:00,
2014-10-21 08:51:00,59.8,57.0,29.86,East,80,0.0,-999.0,91,-99.99,,,0.00,Homebuilt-Script,2014-10-21 15:51:00,
2014-10-21 09:01:00,60.5,57.0,29.86,South,179,0.0,-999.0,90,-99.99,,,0.00,Homebuilt-Script,2014-10-21 16:01:00,
2014-10-21 09:11:00,61.2,58.0,29.86,South,179,0.0,-999.0,90,-99.99,,,0.00,Homebuilt-Script,2014-10-21 16:11:00,
2014-10-21 09:21:00,62.1,59.0,29.86,East,89,0.0,-999.0,89,-99.99,,,0.00,Homebuilt-Script,2014-10-21 16:21:00,
2014-10-21 09:31:00,63.2,59.0,29.85,East,89,0.0,-999.0,88,-99.99,,,0.00,Homebuilt-Script,2014-10-21 16:31:00,
2014-10-21 09:41:00,64.3,60.0,29.85,SW,224,2.0,-999.0,87,-99.99,,,0.00,Homebuilt-Script,2014-10-21 16:41:00,
2014-10-21 09:51:00,65.4,60.0,29.84,SW,224,2.0,-999.0,85,-99.99,,,0.01,Homebuilt-Script,2014-10-21 16:51:00,
2014-10-21 10:01:00,66.3,60.0,29.85,South,188,1.0,-999.0,81,-99.99,,,0.01,Homebuilt-Script,2014-10-21 17:01:00,
2014-10-21 10:11:00,67.3,59.0,29.85,South,191,3.0,-999.0,77,-99.99,,,0.01,Homebuilt-Script,2014-10-21 17:11:00,
2014-10-21 10:21:00,68.1,59.0,29.84,West,268,2.0,-999.0,74,-99.99,,,0.01,Homebuilt-Script,2014-10-21 17:21:00,
2014-10-21 10:31:00,69.1,60.0,29.84,SW,219,2.0,-999.0,74,-99.99,,,0.01,Homebuilt-Script,2014-10-21 17:31:00,
2014-10-21 10:41:00,70.0,59.0,29.84,WNW,299,5.0,-999.0,67,-99.99,,,0.01,Homebuilt-Script,2014-10-21 17:41:00,
2014-10-21 10:51:00,70.9,59.0,29.84,South,174,5.0,-999.0,66,-99.99,,,0.01,Homebuilt-Script,2014-10-21 17:51:00,
2014-10-21 11:01:00,71.8,60.0,29.84,SSW,198,3.0,-999.0,64,-99.99,,,0.01,Homebuilt-Script,2014-10-21 18:01:00,
2014-10-21 11:11:00,72.6,59.0,29.84,SW,232,7.0,-999.0,61,-99.99,,,0.01,Homebuilt-Script,2014-10-21 18:11:00,
2014-10-21 11:21:00,73.1,58.0,29.84,SW,229,6.0,-999.0,57,-99.99,,,0.01,Homebuilt-Script,2014-10-21 18:21:00,
2014-10-21 11:31:00,73.8,58.0,29.84,SW,220,4.0,-999.0,55,-99.99,,,0.01,Homebuilt-Script,2014-10-21 18:31:00,
2014-10-21 11:41:00,74.4,59.0,29.83,SW,230,4.0,-999.0,56,-99.99,,,0.01,Homebuilt-Script,2014-10-21 18:41:00,
2014-10-21 11:51:00,75.1,59.0,29.83,SSW,203,8.0,-999.0,53,-99.99,,,0.01,Homebuilt-Script,2014-10-21 18:51:00,